Regional Weather Roundup
Issued by NWS

Home | Current Version | Previous Version | Text Only | Print | Product List | Glossary On
Versions: 1 2 3 4 5 6 7 8 9 10 11 12 13 14 15 16 17 18 19 20 21 22 23 24 25 26 27 28 29 30 31 32 33 34 35 36 37 38 39 40 41 42 43 44 45 46 47 48 49 50
000
ASUS43 KLOT 020303
RWRIL

ILLINOIS REGIONAL WEATHER ROUNDUP
NATIONAL WEATHER SERVICE CHICAGO/ROMEOVILLE IL
1000 PM CDT SUN MAY 01 2016

NOTE: "FAIR" INDICATES FEW OR NO CLOUDS BELOW 12,000 FEET WITH NO
SIGNIFICANT WEATHER AND/OR OBSTRUCTIONS TO VISIBILITY.

* THESE STATIONS ARE NOT UNDER NWS QUALITY CONTROL. THEY ALSO MAY NOT
  REPORT WEATHER SUCH AS PRECIPITATION OR FOG.

ILZ001-002-007-009-015-016-024-020400-
NORTHWEST ILLINOIS

CITY           SKY/WX    TMP DP  RH WIND       PRES   REMARKS
MOLINE         LGT RAIN  50  47  89 N5        30.03R FOG
STERLING*      CLOUDY    48  46  93 E3        30.03R
$$

ILZ003-004-008-010-011-017-018-020400-
NORTH CENTRAL ILLINOIS

CITY           SKY/WX    TMP DP  RH WIND       PRES   REMARKS
ROCKFORD       LGT RAIN  47  45  93 N7        30.05S FOG
FREEPORT*      DRIZZLE   47  45  92 NE9       30.05F
DE KALB*       LGT RAIN  46  46  97 N6        30.02R
$$

ILZ005-006-012>014-019>023-020400-
NORTHEAST ILLINOIS

CITY           SKY/WX    TMP DP  RH WIND       PRES   REMARKS
CHICAGO-OHARE  LGT RAIN  46  45  96 NE8       29.99R
CHICAGO-MIDWAY DRIZZLE   47  45  93 NE8       29.98F
AURORA         CLOUDY    48  45  89 N7        30.01R
LANSING*       CLOUDY    46  46  99 NE10      29.97F
WAUKEGAN       RAIN      46  45  96 N9        30.03R FOG
DUPAGE AIRPORT CLOUDY    47  44  90 NE7       30.00R
WHEELING       RAIN      47  45  93 NE16G24   29.98F FOG
NORTHERLY ISL    N/A     46  44  93 N15         N/A
NORTHERLY ISL    N/A     46  44  93 N15         N/A
$$

LMZ740>746-020400-
SOUTHERN LAKE MICHIGAN

STATION/POSITION SKY/WX   TEMP    WIND        PRES    VSBY  WAVE
                          AIR SEA DIR/SP/G                  HT/PER
                          (F)     (DEG/KT/KT) (MB)    (MI)  (FT/S)
SOUTHERN BUOY              44 40   60/ 14/ 16 1015.1          2/ 4
HARRISON CRIB              45     350/ 13/ 14   N/A
BURNHAM HARBOR             46      30/  6/ 21   N/A
CALUMET HARBOR             45     330/ 11/ 13 1014.5R
BURNS HARBOR               47      20/ 11/ 25 1015.2R
MICHIGAN CITY              49      10/ 14/ 15   N/A
ST. JOSEPH                 51 48                N/A           3/ 4
$$

ILZ025>027-034>036-040-047-049-050-058-095>099-020400-
WEST-CENTRAL ILLINOIS

CITY           SKY/WX    TMP DP  RH WIND       PRES   REMARKS
QUINCY         CLOUDY    51  48  89 NW9       30.03R
MACOMB*        CLOUDY    50  49  97 N10       30.04S
$$

ILZ028>032-037-038-041>044-048-051>054-059>061-020400-
CENTRAL ILLINOIS

CITY           SKY/WX    TMP DP  RH WIND       PRES   REMARKS
BLOOMINGTON    CLOUDY    50  50 100 N10       29.99R FOG
DECATUR        CLOUDY    56  52  86 NW10      29.97R
PEORIA         CLOUDY    50  47  89 N5        30.00R
SPRINGFIELD    PTCLDY    55  52  89 NW10      29.99R
TAYLORVILLE    NOT AVBL
$$

ILZ033-039-045-046-055>057-062-063-020400-
EAST-CENTRAL ILLINOIS

CITY           SKY/WX    TMP DP  RH WIND       PRES   REMARKS
CHAMPAIGN      CLOUDY    53  51  93 N15       29.95R FOG
MATTOON        CLOUDY    58  53  84 NW18      29.95R
$$

ILZ079-100>102-020400-
SOUTHWEST ILLINOIS

CITY           SKY/WX    TMP DP  RH WIND       PRES   REMARKS
ALTON          CLEAR     55  50  82 NW9       30.01R
BELLEVILLE     CLEAR     60  48  64 NW8       29.98R
CAHOKIA*       CLEAR     61  48  62 NW14      29.99R
SPARTA*        CLEAR     61  47  61 NW7       29.99R
$$

ILZ064>066-069>071-074>076-080>082-084>086-088>090-092>094-020400-
SOUTH-CENTRAL ILLINOIS

CITY           SKY/WX    TMP DP  RH WIND       PRES   REMARKS
CARBONDALE     PTCLDY    64  49  57 NW7       29.97R
MT. VERNON     MOCLDY    61  52  72 N3        29.97R
SALEM*         PTCLDY    60  54  79 NW12      29.98R
$$

ILZ067-068-072-073-078-083-087-091-020400-
SOUTHEAST ILLINOIS

CITY           SKY/WX    TMP DP  RH WIND       PRES   REMARKS
LAWRENCEVILLE  CLOUDY    65  63  93 W16       29.92R
FLORA*         CLOUDY    62  54  74 NW12G17   29.96R
HARRISBURG*    PTCLDY    67  59  76 NW15G22   29.96R
ROBINSON*      CLOUDY    61  58  90 NW13G24   29.94R
$$

ABBREVIATIONS USED IN REMARKS
   TC - TEMPERATURE IN CELSIUS
  WCI - WIND CHILL INDEX
   HX - HEAT INDEX
  VSB - VISIBILITY
$$




USA.gov is the U.S. government's official web portal to all federal, state and local government web resources and services.